This is the latest recevied weather packets stored in our database for station/object OK2PAT-12. If no packets are shown the sender has not sent any weather packets the latest 10 day(s).
| Time | Temp. | Humidity | Pressure | Rain* | Wind** | Luminosity | Snow |
|---|---|---|---|---|---|---|---|
| 1788517818 | 23.33° C | 75% | 1017.4 hPa | - | - | - | - |
| 1788517218 | 23.33° C | 75% | 1017.5 hPa | - | - | - | - |
| 1788516618 | 23.89° C | 74% | 1017.6 hPa | - | - | - | - |
| 1788514352 | 24.44° C | 73% | 1018.1 hPa | - | - | - | - |
| 1788513752 | 23.89° C | 74% | 1018.2 hPa | - | - | - | - |
| 1788513152 | 23.33° C | 76% | 1018.2 hPa | - | - | - | - |
| 1788510749 | 22.22° C | 80% | 1018.5 hPa | - | - | - | - |
| 1788510149 | 22.22° C | 80% | 1018.7 hPa | - | - | - | - |
| 1788508948 | 21.67° C | 81% | 1018.9 hPa | - | - | - | - |
| 1788508348 | 21.67° C | 82% | 1018.9 hPa | - | - | - | - |
| 1788507748 | 21.11° C | 83% | 1018.8 hPa | - | - | - | - |
| 1788507149 | 20.56° C | 84% | 1018.8 hPa | - | - | - | - |
| 1788506549 | 20.56° C | 84% | 1018.8 hPa | - | - | - | - |
| 1788505949 | 20.56° C | 84% | 1018.8 hPa | - | - | - | - |
| 1788505348 | 20.56° C | 85% | 1018.9 hPa | - | - | - | - |
| 1788504149 | 20° C | 86% | 1018.9 hPa | - | - | - | - |
| 1788503556 | 19.44° C | 87% | 1018.9 hPa | - | - | - | - |
| 1788502949 | 19.44° C | 87% | 1018.8 hPa | - | - | - | - |
| 1788501774 | 18.89° C | 88% | 1018.7 hPa | - | - | - | - |
| 1788501174 | 18.33° C | 88% | 1018.7 hPa | - | - | - | - |
| 1788500574 | 18.33° C | 88% | 1018.6 hPa | - | - | - | - |
| 1788499974 | 18.33° C | 88% | 1018.6 hPa | - | - | - | - |
| 1788499374 | 18.33° C | 88% | 1018.6 hPa | - | - | - | - |
| 1788498774 | 18.33° C | 88% | 1018.6 hPa | - | - | - | - |
| 1788498174 | 18.33° C | 88% | 1018.6 hPa | - | - | - | - |
* Rain since midnight (hover to see other rain measurements)
** Current wind speed in m/s (hover to see current wind gust speed)